| time (UTC) | temp C | wind direction | speed KPH | gust KPH | rain 1hr cm | rain 24hr cm | rain mn cm | humidity % | barometer mb |
| 20260505153102 | 10 | 64 | 3.2 | 12.9 | 0.00 | 0.23 | 0.15 | 95 | 1006.9 |
| 20260505151547 | 11 | 20 | 6.4 | 11.3 | 0.00 | 0.23 | 0.15 | 94 | 1006.8 |
| 20260505150106 | 11 | 360 | 6.4 | 9.7 | 0.00 | 0.23 | 0.15 | 94 | 1006.8 |
| 20260505124536 | 12 | 90 | 3.2 | 8.0 | 0.00 | 0.48 | 0.15 | 88 | 1007.5 |
| 20260505123049 | 13 | 65 | 1.6 | 6.4 | 0.00 | 0.48 | 0.15 | 88 | 1007.6 |
| 20260505121535 | 12 | 106 | 1.6 | 6.4 | 0.00 | 0.48 | 0.15 | 87 | 1007.6 |
| 20260505120043 | 12 | 19 | 3.2 | 6.4 | 0.00 | 0.48 | 0.15 | 89 | 1007.7 |
| 20260505114539 | 12 | 19 | 1.6 | 6.4 | 0.00 | 0.48 | 0.15 | 90 | 1007.7 |
| 20260505113128 | 12 | 24 | 1.6 | 4.8 | 0.00 | 0.48 | 0.15 | 90 | 1007.9 |
| 20260505111525 | 12 | 24 | 1.6 | 4.8 | 0.00 | 0.48 | 0.15 | 90 | 1008.0 |
| 20260505101519 | 12 | 27 | 0.0 | 0.0 | 0.03 | 0.48 | 0.15 | 94 | 1008.3 |
| 20260505100016 | 11 | 27 | 0.0 | 1.6 | 0.05 | 0.48 | 0.15 | 94 | 1008.4 |
| 20260505094514 | 11 | 27 | 0.0 | 3.2 | 0.05 | 0.48 | 0.15 | 93 | 1008.4 |
| 20260505093014 | 11 | 27 | 0.0 | 4.8 | 0.08 | 0.48 | 0.15 | 94 | 1008.4 |
| 20260505091513 | 11 | 27 | 0.0 | 4.8 | 0.05 | 0.43 | 0.13 | 93 | 1008.5 |
| 20260505090012 | 11 | 188 | 0.0 | 3.2 | 0.05 | 0.43 | 0.13 | 93 | 1008.6 |
| 20260505084514 | 11 | 188 | 0.0 | 3.2 | 0.03 | 0.43 | 0.10 | 93 | 1008.6 |
| 20260505083013 | 11 | 188 | 0.0 | 3.2 | 0.00 | 0.41 | 0.08 | 93 | 1008.6 |
| 20260505081512 | 11 | 188 | 0.0 | 3.2 | 0.00 | 0.41 | 0.08 | 93 | 1008.5 |
| 20260505080008 | 11 | 188 | 0.0 | 0.0 | 0.00 | 0.41 | 0.08 | 94 | 1008.6 |
| 20260505074506 | 11 | 188 | 0.0 | 0.0 | 0.00 | 0.41 | 0.08 | 94 | 1008.6 |
| 20260505073008 | 11 | 188 | 0.0 | 1.6 | 0.00 | 0.41 | 0.08 | 95 | 1008.7 |
| 20260505071503 | 11 | 188 | 0.0 | 0.0 | 0.00 | 0.41 | 0.08 | 95 | 1008.7 |
| 20260505070002 | 11 | 188 | 0.0 | 4.8 | 0.00 | 0.41 | 0.08 | 95 | 1008.8 |
| 20260505064600 | 11 | 188 | 0.0 | 3.2 | 0.00 | 0.41 | 0.08 | 95 | 1008.8 |
| 20260505063101 | 10 | 188 | 0.0 | 0.0 | 0.00 | 0.41 | 0.08 | 95 | 1008.9 |
| 20260505061602 | 10 | 188 | 0.0 | 0.0 | 0.00 | 0.41 | 0.08 | 95 | 1008.9 |
| 20260505060056 | 10 | 188 | 0.0 | 0.0 | 0.00 | 0.41 | 0.08 | 95 | 1009.0 |
| 20260505054558 | 10 | 188 | 0.0 | 0.0 | 0.00 | 0.41 | 0.08 | 95 | 1008.9 |
| 20260505053054 | 10 | 188 | 0.0 | 0.0 | 0.00 | 0.41 | 0.08 | 95 | 1008.9 |
| 20260505051554 | 10 | 188 | 0.0 | 1.6 | 0.00 | 0.41 | 0.08 | 95 | 1008.9 |
| 20260505050124 | 10 | 188 | 0.0 | 0.0 | 0.00 | 0.41 | 0.08 | 95 | 1008.8 |
| 20260505041603 | 10 | 188 | 0.0 | 0.0 | 0.03 | 0.41 | 0.08 | 95 | 1008.9 |
| 20260505040058 | 10 | 188 | 0.0 | 0.0 | 0.03 | 0.41 | 0.08 | 95 | 1008.9 |
| 20260505034549 | 10 | 188 | 0.0 | 0.0 | 0.03 | 0.41 | 0.08 | 95 | 1009.0 |
| 20260505033049 | 10 | 188 | 0.0 | 0.0 | 0.00 | 0.38 | 0.05 | 95 | 1009.1 |
| 20260505031549 | 10 | 188 | 0.0 | 0.0 | 0.03 | 0.38 | 0.05 | 95 | 1009.3 |
| 20260505030045 | 10 | 188 | 0.0 | 0.0 | 0.03 | 0.38 | 0.05 | 95 | 1009.4 |
| 20260505024543 | 10 | 188 | 0.0 | 0.0 | 0.05 | 0.38 | 0.05 | 95 | 1009.6 |
| 20260505023045 | 10 | 188 | 0.0 | 0.0 | 0.05 | 0.38 | 0.05 | 94 | 1009.7 |
| 20260505021542 | 10 | 188 | 0.0 | 3.2 | 0.05 | 0.36 | 0.05 | 94 | 1009.9 |
| 20260505020040 | 10 | 188 | 0.0 | 3.2 | 0.05 | 0.36 | 0.05 | 94 | 1009.9 |
| 20260505014557 | 10 | 188 | 0.0 | 0.0 | 0.03 | 0.33 | 0.03 | 94 | 1009.9 |
| 20260505013042 | 10 | 188 | 0.0 | 4.8 | 0.03 | 0.33 | 0.03 | 94 | 1009.8 |
| 20260505011538 | 10 | 188 | 0.0 | 3.2 | 0.00 | 0.33 | 0.00 | 94 | 1009.9 |
| 20260505010037 | 10 | 188 | 0.0 | 1.6 | 0.00 | 0.33 | 0.00 | 94 | 1009.9 |
| 20260505004540 | 10 | 188 | 0.0 | 0.0 | 0.00 | 0.33 | 0.00 | 94 | 1010.0 |
| 20260505003034 | 10 | 188 | 0.0 | 1.6 | 0.00 | 0.33 | 0.00 | 94 | 1010.2 |
| 20260505001533 | 10 | 188 | 0.0 | 3.2 | 0.00 | 0.33 | 0.00 | 93 | 1010.3 |
| 20260505000039 | 10 | 188 | 0.0 | 1.6 | 0.00 | 0.33 | 0.00 | 93 | 1010.5 |
| 20260504234530 | 10 | 188 | 0.0 | 3.2 | 0.00 | 0.33 | 0.00 | 93 | 1010.6 |
| 20260504233031 | 10 | 188 | 0.0 | 6.4 | 0.00 | 0.33 | 0.00 | 93 | 1010.8 |
| 20260504231528 | 10 | 206 | 1.6 | 9.7 | 0.00 | 0.33 | 0.00 | 93 | 1010.8 |
| 20260504230026 | 10 | 218 | 1.6 | 9.7 | 0.00 | 0.33 | 0.00 | 93 | 1010.9 |
| 20260504224524 | 10 | 202 | 1.6 | 6.4 | 0.00 | 0.33 | 0.00 | 93 | 1011.0 |
| 20260504223023 | 10 | 225 | 1.6 | 8.0 | 0.00 | 0.33 | 0.00 | 93 | 1011.1 |
| 20260504221523 | 10 | 216 | 3.2 | 9.7 | 0.00 | 0.33 | 0.00 | 93 | 1011.2 |
| 20260504220019 | 10 | 173 | 1.6 | 9.7 | 0.00 | 0.33 | 0.00 | 94 | 1011.4 |
| 20260504214520 | 10 | 194 | 1.6 | 6.4 | 0.00 | 0.33 | 0.33 | 94 | 1011.5 |
| 20260504213041 | 10 | 212 | 0.0 | 6.4 | 0.00 | 0.33 | 0.33 | 94 | 1011.6 |
| 20260504211518 | 10 | 198 | 1.6 | 6.4 | 0.00 | 0.33 | 0.33 | 94 | 1011.7 |
| 20260504210018 | 10 | 261 | 0.0 | 6.4 | 0.00 | 0.33 | 0.33 | 93 | 1011.8 |
| 20260504204516 | 10 | 195 | 1.6 | 8.0 | 0.00 | 0.33 | 0.33 | 93 | 1011.9 |
| 20260504203016 | 10 | 184 | 1.6 | 4.8 | 0.00 | 0.33 | 0.33 | 93 | 1012.0 |
| 20260504201522 | 10 | 173 | 0.0 | 3.2 | 0.00 | 0.33 | 0.33 | 93 | 1012.0 |
| 20260504200017 | 10 | 170 | 0.0 | 1.6 | 0.00 | 0.33 | 0.33 | 93 | 1012.1 |
| 20260504194517 | 10 | 170 | 0.0 | 3.2 | 0.00 | 0.33 | 0.33 | 93 | 1012.1 |
| 20260504193014 | 10 | 170 | 0.0 | 3.2 | 0.00 | 0.33 | 0.33 | 93 | 1012.0 |
| 20260504191515 | 10 | 170 | 0.0 | 1.6 | 0.00 | 0.33 | 0.33 | 93 | 1011.9 |
| 20260504190013 | 11 | 186 | 0.0 | 1.6 | 0.00 | 0.33 | 0.33 | 92 | 1011.9 |
| 20260504184515 | 11 | 186 | 0.0 | 4.8 | 0.00 | 0.33 | 0.33 | 92 | 1011.9 |
| 20260504183019 | 11 | 186 | 0.0 | 6.4 | 0.00 | 0.33 | 0.33 | 92 | 1011.9 |
| 20260504181512 | 11 | 185 | 1.6 | 8.0 | 0.03 | 0.33 | 0.33 | 92 | 1011.9 |
| 20260504180011 | 11 | 207 | 0.0 | 6.4 | 0.03 | 0.33 | 0.33 | 92 | 1011.9 |
| 20260504174511 | 11 | 207 | 1.6 | 6.4 | 0.03 | 0.33 | 0.33 | 92 | 1012.0 |
| 20260504173022 | 11 | 207 | 0.0 | 4.8 | 0.03 | 0.33 | 0.33 | 92 | 1012.1 |
| 20260504171517 | 11 | 207 | 0.0 | 4.8 | 0.03 | 0.30 | 0.30 | 92 | 1012.2 |